| time (UTC) | temp C | wind direction | speed KPH | gust KPH | rain 1hr cm | rain 24hr cm | rain mn cm | humidity % | barometer mb |
| 20260506103543 | 24 | 157 | 11.3 | 14.5 | 0.00 | 0.00 | 0.00 | 93 | 1008.8 |
| 20260506103047 | 24 | 140 | 9.7 | 14.5 | 0.00 | 0.00 | 0.00 | 93 | 1008.8 |
| 20260506102543 | 24 | 136 | 6.4 | 11.3 | 0.00 | 0.00 | 0.00 | 93 | 1008.8 |
| 20260506102042 | 24 | 140 | 6.4 | 12.9 | 0.00 | 0.00 | 0.00 | 93 | 1008.8 |
| 20260506101553 | 24 | 133 | 8.0 | 14.5 | 0.00 | 0.00 | 0.00 | 93 | 1008.7 |
| 20260506101042 | 24 | 138 | 6.4 | 11.3 | 0.00 | 0.00 | 0.00 | 93 | 1008.8 |
| 20260506100542 | 24 | 141 | 4.8 | 11.3 | 0.00 | 0.00 | 0.00 | 93 | 1008.8 |
| 20260506100043 | 24 | 162 | 4.8 | 11.3 | 0.00 | 0.00 | 0.00 | 93 | 1008.6 |
| 20260506095545 | 24 | 132 | 4.8 | 8.0 | 0.00 | 0.00 | 0.00 | 93 | 1008.6 |
| 20260506095041 | 24 | 140 | 4.8 | 8.0 | 0.00 | 0.00 | 0.00 | 93 | 1008.6 |
| 20260506094547 | 24 | 142 | 4.8 | 11.3 | 0.00 | 0.00 | 0.00 | 92 | 1008.5 |
| 20260506094039 | 24 | 139 | 6.4 | 12.9 | 0.00 | 0.00 | 0.00 | 92 | 1008.5 |
| 20260506093542 | 24 | 142 | 9.7 | 14.5 | 0.00 | 0.00 | 0.00 | 92 | 1008.5 |
| 20260506093039 | 24 | 144 | 8.0 | 14.5 | 0.00 | 0.00 | 0.00 | 92 | 1008.4 |
| 20260506092542 | 24 | 153 | 8.0 | 12.9 | 0.00 | 0.00 | 0.00 | 93 | 1008.5 |
| 20260506092039 | 24 | 161 | 8.0 | 12.9 | 0.00 | 0.00 | 0.00 | 93 | 1008.5 |
| 20260506091539 | 24 | 146 | 8.0 | 14.5 | 0.00 | 0.00 | 0.00 | 93 | 1008.4 |
| 20260506091043 | 24 | 140 | 11.3 | 14.5 | 0.00 | 0.00 | 0.00 | 93 | 1008.4 |
| 20260506090539 | 24 | 133 | 9.7 | 12.9 | 0.00 | 0.00 | 0.00 | 93 | 1008.3 |
| 20260506090038 | 24 | 136 | 8.0 | 12.9 | 0.00 | 0.00 | 0.00 | 93 | 1008.3 |
| 20260506085536 | 24 | 144 | 8.0 | 11.3 | 0.00 | 0.00 | 0.00 | 93 | 1008.3 |
| 20260506085036 | 24 | 143 | 6.4 | 11.3 | 0.00 | 0.00 | 0.00 | 93 | 1008.4 |
| 20260506084537 | 24 | 142 | 4.8 | 11.3 | 0.00 | 0.00 | 0.00 | 93 | 1008.5 |
| 20260506084036 | 24 | 121 | 4.8 | 12.9 | 0.00 | 0.00 | 0.00 | 92 | 1008.3 |
| 20260506083539 | 24 | 131 | 8.0 | 12.9 | 0.00 | 0.00 | 0.00 | 92 | 1008.4 |
| 20260506083036 | 24 | 136 | 4.8 | 12.9 | 0.00 | 0.00 | 0.00 | 92 | 1008.4 |
| 20260506082537 | 24 | 136 | 8.0 | 12.9 | 0.00 | 0.00 | 0.00 | 92 | 1008.5 |
| 20260506082034 | 24 | 137 | 9.7 | 12.9 | 0.00 | 0.00 | 0.00 | 92 | 1008.5 |
| 20260506081534 | 25 | 132 | 8.0 | 17.7 | 0.00 | 0.00 | 0.00 | 92 | 1008.5 |
| 20260506081034 | 25 | 124 | 8.0 | 17.7 | 0.00 | 0.00 | 0.00 | 92 | 1008.4 |
| 20260506080533 | 25 | 130 | 12.9 | 16.1 | 0.00 | 0.00 | 0.00 | 92 | 1008.4 |
| 20260506073030 | 25 | 140 | 9.7 | 16.1 | 0.00 | 0.00 | 0.00 | 92 | 1008.9 |
| 20260506072529 | 25 | 131 | 9.7 | 14.5 | 0.00 | 0.00 | 0.00 | 91 | 1008.9 |
| 20260506072029 | 25 | 132 | 9.7 | 16.1 | 0.00 | 0.00 | 0.00 | 91 | 1009.0 |
| 20260506071528 | 25 | 139 | 12.9 | 16.1 | 0.00 | 0.00 | 0.00 | 91 | 1009.0 |
| 20260506071027 | 25 | 141 | 9.7 | 16.1 | 0.00 | 0.00 | 0.00 | 91 | 1009.2 |
| 20260506070526 | 25 | 157 | 8.0 | 17.7 | 0.00 | 0.00 | 0.00 | 91 | 1009.3 |
| 20260506062025 | 25 | 154 | 9.7 | 16.1 | 0.00 | 0.00 | 0.00 | 91 | 1009.6 |
| 20260506061524 | 25 | 175 | 12.9 | 19.3 | 0.00 | 0.00 | 0.00 | 91 | 1009.5 |
| 20260506061024 | 25 | 158 | 12.9 | 20.9 | 0.00 | 0.00 | 0.00 | 91 | 1009.5 |
| 20260506060526 | 25 | 360 | 14.5 | 20.9 | 0.00 | 0.00 | 0.00 | 91 | 1009.5 |
| 20260506051021 | 25 | 169 | 17.7 | 24.1 | 0.00 | 0.00 | 0.00 | 91 | 1009.3 |
| 20260506050525 | 25 | 162 | 14.5 | 25.7 | 0.00 | 0.00 | 0.00 | 91 | 1009.3 |
| 20260506045016 | 25 | 164 | 16.1 | 25.7 | 0.00 | 0.00 | 0.00 | 91 | 1009.3 |
| 20260506044523 | 25 | 146 | 16.1 | 24.1 | 0.00 | 0.00 | 0.00 | 90 | 1009.2 |
| 20260506044026 | 25 | 157 | 14.5 | 24.1 | 0.00 | 0.00 | 0.00 | 90 | 1009.2 |
| 20260506043516 | 25 | 155 | 17.7 | 27.4 | 0.00 | 0.00 | 0.00 | 90 | 1009.2 |
| 20260506043017 | 25 | 152 | 17.7 | 27.4 | 0.00 | 0.00 | 0.00 | 90 | 1009.2 |
| 20260506042516 | 25 | 150 | 17.7 | 32.2 | 0.00 | 0.00 | 0.00 | 90 | 1009.2 |
| 20260506042022 | 25 | 156 | 17.7 | 30.6 | 0.00 | 0.00 | 0.00 | 90 | 1009.3 |
| 20260506041525 | 25 | 158 | 19.3 | 30.6 | 0.00 | 0.00 | 0.00 | 90 | 1009.2 |
| 20260506041017 | 25 | 149 | 14.5 | 24.1 | 0.00 | 0.00 | 0.00 | 90 | 1009.3 |
| 20260506040520 | 25 | 360 | 16.1 | 24.1 | 0.00 | 0.00 | 0.00 | 90 | 1009.2 |
| 20260506040015 | 25 | 148 | 16.1 | 25.7 | 0.00 | 0.00 | 0.00 | 90 | 1009.2 |
| 20260506035514 | 25 | 149 | 19.3 | 27.4 | 0.00 | 0.00 | 0.00 | 90 | 1009.1 |
| 20260506035015 | 25 | 145 | 17.7 | 25.7 | 0.00 | 0.00 | 0.00 | 90 | 1009.2 |
| 20260506034514 | 25 | 141 | 17.7 | 25.7 | 0.00 | 0.00 | 0.00 | 90 | 1009.1 |
| 20260506034013 | 25 | 145 | 14.5 | 22.5 | 0.00 | 0.00 | 0.00 | 90 | 1009.2 |
| 20260506033513 | 25 | 155 | 14.5 | 24.1 | 0.00 | 0.00 | 0.00 | 90 | 1009.2 |
| 20260506033014 | 25 | 131 | 17.7 | 24.1 | 0.00 | 0.00 | 0.00 | 90 | 1009.2 |
| 20260506032518 | 25 | 139 | 17.7 | 27.4 | 0.00 | 0.00 | 0.00 | 90 | 1009.1 |
| 20260506032014 | 25 | 148 | 19.3 | 27.4 | 0.00 | 0.00 | 0.00 | 90 | 1008.9 |
| 20260506031519 | 25 | 136 | 17.7 | 27.4 | 0.00 | 0.00 | 0.00 | 90 | 1009.0 |
| 20260506031014 | 25 | 144 | 19.3 | 32.2 | 0.00 | 0.00 | 0.00 | 90 | 1008.9 |
| 20260506030513 | 25 | 153 | 22.5 | 32.2 | 0.00 | 0.00 | 0.00 | 90 | 1008.9 |
| 20260506030012 | 25 | 159 | 22.5 | 29.0 | 0.00 | 0.00 | 0.00 | 90 | 1008.7 |
| 20260506025513 | 25 | 147 | 20.9 | 29.0 | 0.00 | 0.00 | 0.00 | 90 | 1008.7 |
| 20260506025013 | 25 | 152 | 20.9 | 29.0 | 0.00 | 0.00 | 0.00 | 89 | 1008.5 |
| 20260506024511 | 25 | 153 | 19.3 | 30.6 | 0.00 | 0.00 | 0.00 | 89 | 1008.4 |
| 20260506024011 | 25 | 148 | 22.5 | 30.6 | 0.00 | 0.00 | 0.00 | 89 | 1008.4 |
| 20260506023511 | 25 | 140 | 22.5 | 30.6 | 0.00 | 0.00 | 0.00 | 89 | 1008.2 |
| 20260506023011 | 25 | 146 | 20.9 | 27.4 | 0.00 | 0.00 | 0.00 | 89 | 1008.2 |
| 20260506022510 | 25 | 130 | 19.3 | 27.4 | 0.00 | 0.00 | 0.00 | 89 | 1008.2 |
| 20260506022010 | 25 | 144 | 19.3 | 29.0 | 0.00 | 0.00 | 0.00 | 89 | 1008.2 |
| 20260506021510 | 25 | 142 | 17.7 | 37.0 | 0.00 | 0.00 | 0.00 | 89 | 1008.1 |
| 20260506021012 | 25 | 141 | 24.1 | 37.0 | 0.00 | 0.00 | 0.00 | 89 | 1008.0 |
| 20260506020513 | 25 | 150 | 17.7 | 27.4 | 0.00 | 0.00 | 0.00 | 89 | 1007.9 |
| 20260506020014 | 25 | 159 | 19.3 | 27.4 | 0.00 | 0.00 | 0.00 | 89 | 1008.0 |
| 20260506015509 | 25 | 152 | 19.3 | 30.6 | 0.00 | 0.00 | 0.00 | 89 | 1007.9 |
| 20260506015009 | 25 | 141 | 19.3 | 30.6 | 0.00 | 0.00 | 0.00 | 89 | 1007.9 |
| 20260506014516 | 25 | 153 | 17.7 | 27.4 | 0.00 | 0.00 | 0.00 | 89 | 1007.9 |
| 20260506014008 | 25 | 138 | 17.7 | 27.4 | 0.00 | 0.00 | 0.00 | 89 | 1007.7 |
| 20260506013508 | 25 | 134 | 17.7 | 30.6 | 0.00 | 0.00 | 0.00 | 89 | 1007.8 |
| 20260506013022 | 25 | 142 | 17.7 | 25.7 | 0.00 | 0.00 | 0.00 | 88 | 1007.8 |
| 20260506012509 | 25 | 138 | 19.3 | 27.4 | 0.00 | 0.00 | 0.00 | 88 | 1007.6 |
| 20260506012009 | 25 | 139 | 19.3 | 27.4 | 0.00 | 0.00 | 0.00 | 88 | 1007.7 |
| 20260506011508 | 25 | 126 | 17.7 | 30.6 | 0.00 | 0.00 | 0.00 | 88 | 1007.5 |
| 20260506011007 | 25 | 144 | 20.9 | 30.6 | 0.00 | 0.00 | 0.00 | 88 | 1007.6 |
| 20260506010508 | 25 | 139 | 22.5 | 29.0 | 0.00 | 0.00 | 0.00 | 88 | 1007.4 |
| 20260506010008 | 25 | 134 | 19.3 | 29.0 | 0.00 | 0.00 | 0.00 | 88 | 1007.2 |
| 20260506005507 | 25 | 145 | 20.9 | 29.0 | 0.00 | 0.00 | 0.00 | 87 | 1007.2 |
| 20260506005012 | 25 | 161 | 22.5 | 30.6 | 0.00 | 0.00 | 0.00 | 87 | 1007.2 |
| 20260506004516 | 25 | 157 | 20.9 | 33.8 | 0.00 | 0.00 | 0.00 | 87 | 1007.2 |
| 20260506004006 | 25 | 160 | 24.1 | 37.0 | 0.00 | 0.00 | 0.00 | 87 | 1007.1 |
| 20260506003507 | 25 | 152 | 22.5 | 37.0 | 0.00 | 0.00 | 0.00 | 87 | 1007.1 |
| 20260506003006 | 26 | 152 | 19.3 | 29.0 | 0.00 | 0.00 | 0.00 | 86 | 1007.1 |
| 20260506002505 | 26 | 138 | 19.3 | 30.6 | 0.00 | 0.00 | 0.00 | 86 | 1007.0 |
| 20260506002007 | 26 | 148 | 22.5 | 30.6 | 0.00 | 0.00 | 0.00 | 85 | 1006.9 |
| 20260506001506 | 26 | 146 | 20.9 | 30.6 | 0.00 | 0.00 | 0.00 | 85 | 1007.0 |
| 20260506001006 | 26 | 155 | 24.1 | 32.2 | 0.00 | 0.00 | 0.00 | 85 | 1007.0 |
| 20260506000507 | 26 | 157 | 22.5 | 32.2 | 0.00 | 0.00 | 0.00 | 85 | 1007.0 |
| 20260506000015 | 26 | 146 | 22.5 | 32.2 | 0.00 | 0.00 | 0.00 | 85 | 1007.0 |
| 20260505235508 | 26 | 155 | 25.7 | 33.8 | 0.00 | 0.00 | 0.00 | 84 | 1007.0 |
| 20260505235004 | 26 | 157 | 24.1 | 33.8 | 0.00 | 0.00 | 0.00 | 84 | 1007.1 |
| 20260505234512 | 26 | 148 | 25.7 | 33.8 | 0.00 | 0.00 | 0.00 | 83 | 1007.1 |
| 20260505234003 | 26 | 163 | 20.9 | 37.0 | 0.00 | 0.00 | 0.00 | 83 | 1007.0 |
| 20260505233506 | 26 | 150 | 29.0 | 37.0 | 0.00 | 0.00 | 0.00 | 83 | 1007.0 |
| 20260505233003 | 26 | 205 | 27.4 | 37.0 | 0.00 | 0.00 | 0.00 | 83 | 1007.1 |
| 20260505232502 | 26 | 149 | 27.4 | 40.2 | 0.00 | 0.00 | 0.00 | 83 | 1007.1 |
| 20260505232002 | 26 | 168 | 30.6 | 40.2 | 0.00 | 0.00 | 0.00 | 82 | 1007.2 |
| 20260505231502 | 26 | 149 | 24.1 | 32.2 | 0.00 | 0.00 | 0.00 | 82 | 1007.2 |
| 20260505231001 | 26 | 168 | 22.5 | 30.6 | 0.00 | 0.00 | 0.00 | 82 | 1007.3 |
| 20260505230501 | 27 | 171 | 22.5 | 35.4 | 0.00 | 0.00 | 0.00 | 82 | 1007.3 |
| 20260505230118 | 27 | 167 | 20.9 | 35.4 | 0.00 | 0.00 | 0.00 | 82 | 1007.3 |
| 20260505225600 | 27 | 158 | 24.1 | 35.4 | 0.00 | 0.00 | 0.00 | 82 | 1007.4 |
| 20260505225100 | 27 | 148 | 24.1 | 35.4 | 0.00 | 0.00 | 0.00 | 82 | 1007.4 |
| 20260505224600 | 27 | 135 | 22.5 | 35.4 | 0.00 | 0.00 | 0.00 | 82 | 1007.4 |
| 20260505224059 | 27 | 163 | 25.7 | 32.2 | 0.00 | 0.00 | 0.00 | 82 | 1007.5 |
| 20260505223559 | 27 | 155 | 25.7 | 35.4 | 0.00 | 0.00 | 0.00 | 81 | 1007.4 |
| 20260505223101 | 27 | 155 | 25.7 | 35.4 | 0.00 | 0.00 | 0.00 | 81 | 1007.3 |
| 20260505222558 | 27 | 164 | 25.7 | 33.8 | 0.00 | 0.00 | 0.00 | 81 | 1007.3 |
| 20260505222058 | 27 | 150 | 25.7 | 33.8 | 0.00 | 0.00 | 0.00 | 80 | 1007.5 |
| 20260505221600 | 27 | 156 | 20.9 | 33.8 | 0.00 | 0.00 | 0.00 | 80 | 1007.4 |
| 20260505221059 | 27 | 148 | 19.3 | 38.6 | 0.00 | 0.00 | 0.00 | 81 | 1007.5 |
| 20260505220557 | 27 | 150 | 22.5 | 38.6 | 0.00 | 0.00 | 0.00 | 80 | 1007.5 |
| 20260505220057 | 27 | 163 | 22.5 | 33.8 | 0.00 | 0.00 | 0.00 | 80 | 1007.5 |
| 20260505215557 | 27 | 167 | 25.7 | 37.0 | 0.00 | 0.00 | 0.00 | 80 | 1007.5 |
| 20260505215057 | 27 | 158 | 19.3 | 35.4 | 0.00 | 0.00 | 0.00 | 80 | 1007.4 |
| 20260505214606 | 27 | 171 | 22.5 | 37.0 | 0.00 | 0.00 | 0.00 | 79 | 1007.5 |
| 20260505214055 | 27 | 153 | 22.5 | 33.8 | 0.00 | 0.00 | 0.00 | 78 | 1007.5 |
| 20260505213554 | 27 | 178 | 19.3 | 35.4 | 0.00 | 0.00 | 0.00 | 78 | 1007.6 |
| 20260505213059 | 27 | 163 | 24.1 | 35.4 | 0.00 | 0.00 | 0.00 | 78 | 1007.7 |
| 20260505212553 | 27 | 178 | 20.9 | 32.2 | 0.00 | 0.00 | 0.00 | 78 | 1007.8 |
| 20260505212053 | 27 | 167 | 22.5 | 35.4 | 0.00 | 0.00 | 0.00 | 77 | 1007.9 |
| 20260505211602 | 27 | 161 | 22.5 | 32.2 | 0.00 | 0.00 | 0.00 | 76 | 1007.9 |
| 20260505211052 | 27 | 155 | 24.1 | 35.4 | 0.00 | 0.00 | 0.00 | 77 | 1007.9 |
| 20260505210551 | 27 | 169 | 24.1 | 37.0 | 0.00 | 0.00 | 0.00 | 76 | 1008.0 |
| 20260505210056 | 27 | 176 | 24.1 | 37.0 | 0.00 | 0.00 | 0.00 | 77 | 1008.1 |
| 20260505205551 | 27 | 176 | 24.1 | 37.0 | 0.00 | 0.00 | 0.00 | 76 | 1008.1 |
| 20260505205049 | 27 | 163 | 20.9 | 40.2 | 0.00 | 0.00 | 0.00 | 77 | 1008.2 |
| 20260505204549 | 28 | 150 | 24.1 | 37.0 | 0.00 | 0.00 | 0.00 | 76 | 1008.3 |
| 20260505204048 | 28 | 178 | 24.1 | 37.0 | 0.00 | 0.00 | 0.00 | 76 | 1008.3 |
| 20260505203548 | 27 | 173 | 22.5 | 37.0 | 0.00 | 0.00 | 0.00 | 76 | 1008.5 |
| 20260505203050 | 27 | 173 | 25.7 | 35.4 | 0.00 | 0.00 | 0.00 | 75 | 1008.4 |
| 20260505202547 | 28 | 175 | 25.7 | 40.2 | 0.00 | 0.00 | 0.00 | 75 | 1008.6 |
| 20260505202054 | 28 | 169 | 29.0 | 38.6 | 0.00 | 0.00 | 0.00 | 75 | 1008.7 |
| 20260505201552 | 28 | 155 | 25.7 | 41.8 | 0.00 | 0.00 | 0.00 | 76 | 1008.7 |
| 20260505201045 | 28 | 159 | 24.1 | 38.6 | 0.00 | 0.00 | 0.00 | 76 | 1008.6 |
| 20260505200545 | 28 | 156 | 29.0 | 38.6 | 0.00 | 0.00 | 0.00 | 76 | 1008.8 |
| 20260505200045 | 28 | 153 | 25.7 | 38.6 | 0.00 | 0.00 | 0.00 | 76 | 1008.7 |
| 20260505195544 | 27 | 192 | 22.5 | 40.2 | 0.00 | 0.00 | 0.00 | 78 | 1008.9 |
| 20260505195044 | 28 | 173 | 25.7 | 33.8 | 0.00 | 0.00 | 0.00 | 76 | 1008.9 |
| 20260505194542 | 27 | 185 | 27.4 | 38.6 | 0.00 | 0.00 | 0.00 | 78 | 1009.1 |
| 20260505194040 | 27 | 180 | 24.1 | 41.8 | 0.00 | 0.00 | 0.00 | 79 | 1009.1 |
| 20260505193543 | 27 | 158 | 25.7 | 41.8 | 0.00 | 0.00 | 0.00 | 79 | 1009.2 |
| 20260505193046 | 27 | 175 | 24.1 | 35.4 | 0.00 | 0.00 | 0.00 | 79 | 1009.2 |
| 20260505192542 | 27 | 200 | 24.1 | 35.4 | 0.00 | 0.00 | 0.00 | 79 | 1009.2 |
| 20260505192041 | 27 | 178 | 25.7 | 35.4 | 0.00 | 0.00 | 0.00 | 79 | 1009.3 |
| 20260505191549 | 27 | 175 | 25.7 | 35.4 | 0.00 | 0.00 | 0.00 | 80 | 1009.3 |
| 20260505191037 | 27 | 167 | 20.9 | 32.2 | 0.00 | 0.00 | 0.00 | 80 | 1009.4 |
| 20260505190537 | 27 | 193 | 24.1 | 32.2 | 0.00 | 0.00 | 0.00 | 80 | 1009.2 |
| 20260505190044 | 27 | 159 | 27.4 | 35.4 | 0.00 | 0.00 | 0.00 | 80 | 1009.4 |
| 20260505185536 | 27 | 165 | 25.7 | 32.2 | 0.00 | 0.00 | 0.00 | 80 | 1009.4 |
| 20260505185035 | 27 | 189 | 17.7 | 32.2 | 0.00 | 0.00 | 0.00 | 83 | 1009.2 |
| 20260505184535 | 26 | 180 | 17.7 | 32.2 | 0.00 | 0.00 | 0.00 | 84 | 1009.2 |
| 20260505184034 | 26 | 167 | 17.7 | 27.4 | 0.00 | 0.00 | 0.00 | 84 | 1009.3 |
| 20260505183537 | 26 | 164 | 16.1 | 27.4 | 0.00 | 0.00 | 0.00 | 84 | 1009.5 |
| 20260505183047 | 26 | 165 | 22.5 | 35.4 | 0.00 | 0.00 | 0.00 | 84 | 1009.4 |
| 20260505182533 | 26 | 167 | 22.5 | 35.4 | 0.00 | 0.00 | 0.00 | 84 | 1009.4 |
| 20260505182034 | 26 | 178 | 20.9 | 33.8 | 0.00 | 0.00 | 0.00 | 84 | 1009.5 |
| 20260505181535 | 26 | 188 | 20.9 | 33.8 | 0.00 | 0.00 | 0.00 | 83 | 1009.4 |
| 20260505181036 | 26 | 174 | 22.5 | 32.2 | 0.00 | 0.00 | 0.00 | 82 | 1009.5 |
| 20260505180535 | 26 | 188 | 17.7 | 33.8 | 0.00 | 0.00 | 0.00 | 83 | 1009.6 |
| 20260505180039 | 26 | 176 | 20.9 | 33.8 | 0.00 | 0.00 | 0.00 | 82 | 1009.6 |
| 20260505175534 | 26 | 171 | 24.1 | 33.8 | 0.00 | 0.00 | 0.00 | 82 | 1009.7 |
| 20260505175034 | 26 | 169 | 19.3 | 30.6 | 0.00 | 0.00 | 0.00 | 82 | 1009.7 |
| 20260505174538 | 26 | 178 | 22.5 | 33.8 | 0.00 | 0.00 | 0.00 | 82 | 1009.7 |
| 20260505174032 | 26 | 172 | 24.1 | 37.0 | 0.00 | 0.00 | 0.00 | 82 | 1009.7 |
| 20260505173531 | 26 | 166 | 24.1 | 37.0 | 0.00 | 0.00 | 0.00 | 82 | 1009.8 |
| 20260505173038 | 26 | 161 | 20.9 | 35.4 | 0.00 | 0.00 | 0.00 | 82 | 1009.8 |
| 20260505172533 | 26 | 196 | 25.7 | 35.4 | 0.00 | 0.00 | 0.00 | 82 | 1010.0 |
| 20260505172031 | 26 | 185 | 27.4 | 33.8 | 0.00 | 0.00 | 0.00 | 82 | 1009.8 |
| 20260505171538 | 26 | 182 | 20.9 | 33.8 | 0.00 | 0.00 | 0.00 | 82 | 1009.9 |
| 20260505171030 | 27 | 182 | 22.5 | 38.6 | 0.00 | 0.00 | 0.00 | 82 | 1010.0 |
| 20260505170528 | 26 | 195 | 20.9 | 38.6 | 0.00 | 0.00 | 0.00 | 83 | 1009.9 |
| 20260505170030 | 26 | 184 | 20.9 | 35.4 | 0.00 | 0.00 | 0.00 | 83 | 1010.0 |
| 20260505165527 | 26 | 162 | 20.9 | 33.8 | 0.00 | 0.00 | 0.00 | 83 | 1010.1 |
| 20260505165027 | 26 | 163 | 25.7 | 33.8 | 0.00 | 0.00 | 0.00 | 83 | 1010.2 |
| 20260505164534 | 26 | 162 | 17.7 | 27.4 | 0.00 | 0.00 | 0.00 | 84 | 1010.2 |
| 20260505164028 | 26 | 191 | 17.7 | 32.2 | 0.00 | 0.00 | 0.00 | 83 | 1010.1 |
| 20260505163527 | 26 | 161 | 20.9 | 32.2 | 0.00 | 0.00 | 0.00 | 83 | 1010.1 |
| 20260505163030 | 26 | 168 | 19.3 | 30.6 | 0.00 | 0.00 | 0.00 | 83 | 1010.1 |
| 20260505162526 | 26 | 163 | 20.9 | 30.6 | 0.00 | 0.00 | 0.00 | 83 | 1010.2 |
| 20260505162025 | 26 | 174 | 20.9 | 40.2 | 0.00 | 0.00 | 0.00 | 83 | 1010.0 |
| 20260505161525 | 26 | 190 | 24.1 | 33.8 | 0.00 | 0.00 | 0.00 | 82 | 1010.0 |
| 20260505161024 | 26 | 164 | 22.5 | 37.0 | 0.00 | 0.00 | 0.00 | 82 | 1010.2 |
| 20260505160524 | 26 | 192 | 25.7 | 35.4 | 0.00 | 0.00 | 0.00 | 83 | 1010.0 |
| 20260505153026 | 25 | 175 | 17.7 | 24.1 | 0.00 | 0.00 | 0.00 | 88 | 1009.8 |
| 20260505152516 | 25 | 180 | 14.5 | 29.0 | 0.00 | 0.00 | 0.00 | 88 | 1009.7 |
| 20260505152024 | 25 | 178 | 14.5 | 22.5 | 0.00 | 0.00 | 0.00 | 88 | 1009.7 |
| 20260505151518 | 25 | 176 | 17.7 | 27.4 | 0.00 | 0.00 | 0.00 | 88 | 1009.7 |
| 20260505151015 | 25 | 165 | 16.1 | 27.4 | 0.00 | 0.00 | 0.00 | 88 | 1009.8 |
| 20260505150522 | 25 | 187 | 16.1 | 24.1 | 0.00 | 0.00 | 0.00 | 89 | 1009.8 |
| 20260505140517 | 24 | 172 | 16.1 | 25.7 | 0.00 | 0.00 | 0.00 | 90 | 1009.8 |
| 20260505124605 | 23 | 177 | 17.7 | 24.1 | 0.00 | 0.00 | 0.00 | 91 | 1009.3 |
| 20260505124055 | 23 | 169 | 14.5 | 25.7 | 0.00 | 0.00 | 0.00 | 91 | 1009.3 |
| 20260505123558 | 23 | 175 | 17.7 | 25.7 | 0.00 | 0.00 | 0.00 | 91 | 1009.2 |
| 20260505123109 | 23 | 174 | 17.7 | 25.7 | 0.00 | 0.00 | 0.00 | 91 | 1009.4 |
| 20260505122551 | 23 | 172 | 19.3 | 25.7 | 0.00 | 0.00 | 0.00 | 91 | 1009.4 |
| 20260505122051 | 23 | 170 | 12.9 | 22.5 | 0.00 | 0.00 | 0.00 | 91 | 1009.3 |
| 20260505121548 | 23 | 178 | 14.5 | 24.1 | 0.00 | 0.00 | 0.00 | 91 | 1009.1 |
| 20260505121049 | 23 | 184 | 17.7 | 24.1 | 0.00 | 0.00 | 0.00 | 91 | 1009.1 |
| 20260505120546 | 23 | 178 | 14.5 | 19.3 | 0.00 | 0.00 | 0.00 | 91 | 1009.1 |
| 20260505120051 | 23 | 162 | 14.5 | 24.1 | 0.00 | 0.00 | 0.00 | 91 | 1009.0 |
| 20260505115543 | 23 | 167 | 14.5 | 24.1 | 0.00 | 0.00 | 0.00 | 91 | 1009.0 |
| 20260505115043 | 23 | 146 | 14.5 | 24.1 | 0.00 | 0.00 | 0.00 | 91 | 1009.0 |
| 20260505114552 | 23 | 171 | 12.9 | 24.1 | 0.00 | 0.00 | 0.00 | 91 | 1008.9 |
| 20260505114042 | 23 | 189 | 14.5 | 19.3 | 0.00 | 0.00 | 0.00 | 92 | 1009.0 |
| 20260505113540 | 23 | 174 | 12.9 | 22.5 | 0.00 | 0.00 | 0.00 | 91 | 1009.1 |
| 20260505113039 | 23 | 160 | 12.9 | 22.5 | 0.00 | 0.00 | 0.00 | 91 | 1009.1 |
| 20260505112537 | 23 | 167 | 14.5 | 19.3 | 0.00 | 0.00 | 0.00 | 91 | 1009.0 |
| 20260505112036 | 23 | 177 | 11.3 | 19.3 | 0.00 | 0.00 | 0.00 | 92 | 1009.0 |
| 20260505111534 | 23 | 167 | 12.9 | 19.3 | 0.00 | 0.00 | 0.00 | 91 | 1009.0 |
| 20260505111034 | 23 | 158 | 11.3 | 17.7 | 0.00 | 0.00 | 0.00 | 91 | 1008.9 |
| 20260505110535 | 23 | 159 | 12.9 | 24.1 | 0.00 | 0.00 | 0.00 | 91 | 1009.0 |